Location: Hradec Kralove
(50.2170°N, 15.8330°E)
Time: 18:05:41
(UTC+01:00)

Explorer 11/Cluster Stage 4 - Pass Details

Date: 29 January 2023
Orbit: 466 x 1241 km, 28.8° (Epoch: 20 March)

Event Time Altitude Azimuth Distance (km) Brightness Sun altitude
Rises 08:48:14 0° 229° (SW) 4,065 10.2 8.7°
Reaches altitude 10° 08:53:37 10° 200° (SSW) 2,959 9.9 9.3°
Maximum altitude 08:55:50 12° 182° (S) 2,768 10.1 9.6°
Drops below altitude 10° 08:57:57 10° 164° (SSE) 2,802 10.7 9.8°
Sets 09:02:37 0° 133° (SE) 3,544 12.3 10.4°
